• In India
  • List of Countries
  • For 7 days
  • Water Temperature
  • Satellite Maps
  • Weather Map
  • Weather Widgets
  • user-avatar
    Login

    Hourly Weather Ali Bayramli

    Today, 18 December, Tuesday

    Time Temperature Precipitation Wind Pressure Humidity
    00:00 +6°C° 0.4 mm 5 mps 766 mmHg 85%
    01:00 +6°C° 0.3 mm 5 mps 766 mmHg 85%
    02:00 +6°C° 0.3 mm 5 mps 766 mmHg 85%
    03:00 +6°C° 0 mm 5 mps 766 mmHg 85%
    04:00 +6°C° 0.4 mm 5 mps 766 mmHg 85%
    05:00 +6°C° 0.4 mm 5 mps 766 mmHg 85%
    06:00 +6°C° 0.4 mm 5 mps 766 mmHg 85%
    07:00 +6°C° 0.5 mm 5 mps 766 mmHg 85%
    08:00 +6°C° 0.5 mm 5 mps 766 mmHg 84%
    09:00 +6°C° 0 mm 4 mps 766 mmHg 84%
    10:00 +6°C° 0.5 mm 4 mps 766 mmHg 83%
    11:00 +7°C° 0.5 mm 4 mps 766 mmHg 82%
    12:00 +7°C° 0.5 mm 4 mps 766 mmHg 80%
    13:00 +7°C° 0.2 mm 4 mps 766 mmHg 80%
    14:00 +7°C° 0.2 mm 4 mps 766 mmHg 80%
    15:00 +7°C° 0.2 mm 4 mps 766 mmHg 80%
    16:00 +6°C° 0.1 mm 4 mps 767 mmHg 81%
    17:00 +6°C° 0.1 mm 4 mps 767 mmHg 81%
    18:00 +6°C° 0.1 mm 4 mps 768 mmHg 81%
    19:00 +6°C° 0 mm 4 mps 768 mmHg 81%
    20:00 +7°C° 0 mm 3 mps 768 mmHg 81%
    21:00 +7°C° 0 mm 3 mps 768 mmHg 81%
    22:00 +7°C° 0 mm 3 mps 768 mmHg 81%
    23:00 +7°C° 0 mm 3 mps 768 mmHg 81%

    Tomorrow, 19 December, Wednesday

    Time Temperature Precipitation Wind Pressure Humidity
    00:00 +7°C° 0 mm 3 mps 768 mmHg 81%
    01:00 +5°C° 0 mm 3 mps 768 mmHg 82%
    02:00 +6°C° 0 mm 2 mps 768 mmHg 82%
    03:00 +6°C° 0 mm 2 mps 768 mmHg 82%
    04:00 +6°C° 0 mm 2 mps 769 mmHg 82%
    05:00 +6°C° 0 mm 2 mps 769 mmHg 81%
    06:00 +7°C° 0 mm 2 mps 769 mmHg 80%
    07:00 +7°C° 0 mm 2 mps 769 mmHg 78%
    08:00 +7°C° 0 mm 2 mps 769 mmHg 76%
    09:00 +7°C° 0 mm 2 mps 769 mmHg 74%
    10:00 +8°C° 0 mm 2 mps 769 mmHg 73%
    11:00 +8°C° 0 mm 2 mps 769 mmHg 72%
    12:00 +9°C° 0 mm 2 mps 769 mmHg 70%
    13:00 +9°C° 0 mm 3 mps 768 mmHg 71%
    14:00 +9°C° 0 mm 3 mps 768 mmHg 72%
    15:00 +9°C° 0 mm 3 mps 768 mmHg 73%
    16:00 +9°C° 0 mm 3 mps 768 mmHg 75%
    17:00 +9°C° 0 mm 3 mps 768 mmHg 78%
    18:00 +8°C° 0 mm 3 mps 769 mmHg 80%
    19:00 +8°C° 0.1 mm 3 mps 768 mmHg 81%
    20:00 +8°C° 0.1 mm 3 mps 768 mmHg 82%
    21:00 +8°C° 0.1 mm 3 mps 768 mmHg 84%
    22:00 +8°C° 0.1 mm 3 mps 768 mmHg 84%
    23:00 +8°C° 0.1 mm 3 mps 768 mmHg 84%

    Day after tomorrow, 20 December, Thursday

    Time Temperature Precipitation Wind Pressure Humidity
    00:00 +8°C° 0.1 mm 3 mps 768 mmHg 85%
    01:00 +8°C° 0.2 mm 3 mps 767 mmHg 85%
    02:00 +8°C° 0.2 mm 2 mps 767 mmHg 85%
    03:00 +8°C° 0.2 mm 2 mps 767 mmHg 85%
    04:00 +9°C° 0.3 mm 3 mps 767 mmHg 85%
    05:00 +9°C° 0.3 mm 3 mps 767 mmHg 86%
    06:00 +9°C° 0.3 mm 3 mps 767 mmHg 87%
    07:00 +9°C° 0.5 mm 3 mps 767 mmHg 86%
    08:00 +9°C° 0.5 mm 3 mps 767 mmHg 86%
    09:00 +9°C° 0.5 mm 3 mps 767 mmHg 85%
    10:00 +9°C° 0.3 mm 3 mps 766 mmHg 84%
    11:00 +9°C° 0.3 mm 3 mps 766 mmHg 84%
    12:00 +9°C° 0.3 mm 3 mps 766 mmHg 83%
    13:00 +9°C° 0.1 mm 2 mps 765 mmHg 83%
    14:00 +10°C° 0.1 mm 2 mps 765 mmHg 82%
    15:00 +10°C° 0.1 mm 2 mps 765 mmHg 82%
    16:00 +10°C° 0.1 mm 2 mps 765 mmHg 83%
    17:00 +10°C° 0.1 mm 2 mps 765 mmHg 84%
    18:00 +10°C° 0.1 mm 2 mps 765 mmHg 85%
    19:00 +10°C° 0.2 mm 2 mps 765 mmHg 86%
    20:00 +9°C° 0.2 mm 2 mps 765 mmHg 86%
    21:00 +9°C° 0.2 mm 2 mps 765 mmHg 87%
    22:00 +9°C° 0.5 mm 2 mps 765 mmHg 88%
    23:00 +9°C° 0.5 mm 2 mps 765 mmHg 88%

    21 December, Friday

    Time Temperature Precipitation Wind Pressure Humidity
    00:00 +9°C° 0.5 mm 3 mps 765 mmHg 89%
    01:00 +9°C° 0.6 mm 3 mps 765 mmHg 89%
    02:00 +9°C° 0.6 mm 3 mps 765 mmHg 89%
    03:00 +9°C° 0.6 mm 3 mps 765 mmHg 89%
    04:00 +8°C° 0.6 mm 3 mps 765 mmHg 88%
    05:00 +8°C° 0.6 mm 3 mps 766 mmHg 88%
    06:00 +7°C° 0.6 mm 4 mps 766 mmHg 88%
    07:00 +7°C° 0.5 mm 4 mps 766 mmHg 87%
    08:00 +7°C° 0.5 mm 4 mps 767 mmHg 86%
    09:00 +7°C° 0.5 mm 4 mps 767 mmHg 85%
    10:00 +7°C° 0.2 mm 4 mps 767 mmHg 83%
    11:00 +7°C° 0.2 mm 4 mps 767 mmHg 81%
    12:00 +7°C° 0.2 mm 4 mps 767 mmHg 79%
    13:00 +8°C° 0 mm 3 mps 767 mmHg 79%
    14:00 +9°C° 0 mm 3 mps 767 mmHg 79%
    15:00 +9°C° 0 mm 3 mps 767 mmHg 78%
    16:00 +8°C° 0 mm 3 mps 767 mmHg 79%
    17:00 +8°C° 0 mm 3 mps 767 mmHg 81%
    18:00 +8°C° 0 mm 3 mps 767 mmHg 82%
    19:00 +8°C° 0 mm 3 mps 768 mmHg 82%
    20:00 +8°C° 0 mm 3 mps 768 mmHg 82%
    21:00 +6°C° 0 mm 4 mps 768 mmHg 82%
    22:00 +7°C° 0 mm 3 mps 768 mmHg 82%
    23:00 +7°C° 0 mm 3 mps 767 mmHg 82%

    22 December, Saturday

    Time Temperature Precipitation Wind Pressure Humidity
    00:00 +7°C° 0 mm 3 mps 767 mmHg 82%
    01:00 +7°C° 0 mm 2 mps 767 mmHg 83%
    02:00 +7°C° 0 mm 2 mps 767 mmHg 83%
    03:00 +8°C° 0 mm 1 mps 766 mmHg 83%
    04:00 +7°C° 0 mm 1 mps 766 mmHg 85%
    05:00 +7°C° 0 mm 1 mps 766 mmHg 86%
    06:00 +7°C° 0 mm 1 mps 766 mmHg 88%
    07:00 +7°C° 0 mm 1 mps 766 mmHg 85%
    08:00 +8°C° 0 mm 1 mps 766 mmHg 83%
    09:00 +8°C° 0 mm 1 mps 766 mmHg 80%
    10:00 +9°C° 0 mm 1 mps 765 mmHg 77%
    11:00 +9°C° 0 mm 2 mps 765 mmHg 74%
    12:00 +9°C° 0 mm 2 mps 764 mmHg 71%
    13:00 +9°C° 0 mm 2 mps 764 mmHg 71%
    14:00 +9°C° 0 mm 2 mps 763 mmHg 71%
    15:00 +10°C° 0 mm 2 mps 763 mmHg 70%
    16:00 +9°C° 0 mm 2 mps 763 mmHg 73%
    17:00 +9°C° 0 mm 2 mps 763 mmHg 75%
    18:00 +9°C° 0 mm 2 mps 763 mmHg 77%
    19:00 +9°C° 0 mm 2 mps 763 mmHg 78%
    20:00 +9°C° 0 mm 2 mps 763 mmHg 79%
    21:00 +8°C° 0 mm 2 mps 763 mmHg 80%
    22:00 +8°C° 0 mm 2 mps 763 mmHg 81%
    23:00 +8°C° 0 mm 2 mps 763 mmHg 82%

    23 December, Sunday

    Time Temperature Precipitation Wind Pressure Humidity
    00:00 +7°C° 0 mm 2 mps 763 mmHg 83%
    01:00 +7°C° 0 mm 2 mps 763 mmHg 84%
    02:00 +7°C° 0 mm 2 mps 763 mmHg 84%
    03:00 +7°C° 0 mm 2 mps 763 mmHg 85%
    04:00 +7°C° 0 mm 2 mps 763 mmHg 85%
    05:00 +6°C° 0 mm 2 mps 763 mmHg 85%
    06:00 +6°C° 0 mm 2 mps 763 mmHg 86%
    07:00 +7°C° 0 mm 2 mps 764 mmHg 83%
    08:00 +7°C° 0 mm 2 mps 764 mmHg 81%
    09:00 +7°C° 0 mm 2 mps 764 mmHg 79%
    10:00 +8°C° 0 mm 2 mps 764 mmHg 73%
    11:00 +9°C° 0 mm 2 mps 764 mmHg 66%
    12:00 +10°C° 0 mm 2 mps 763 mmHg 60%
    13:00 +12°C° 0 mm 2 mps 763 mmHg 58%
    14:00 +12°C° 0 mm 2 mps 763 mmHg 55%
    15:00 +12°C° 0 mm 2 mps 763 mmHg 53%
    16:00 +10°C° 0 mm 2 mps 763 mmHg 57%
    17:00 +11°C° 0 mm 1 mps 763 mmHg 61%
    18:00 +10°C° 0 mm 1 mps 763 mmHg 65%
    19:00 +10°C° 0 mm 1 mps 763 mmHg 67%
    20:00 +8°C° 0 mm 2 mps 763 mmHg 68%
    21:00 +8°C° 0 mm 2 mps 763 mmHg 70%
    22:00 +8°C° 0 mm 2 mps 763 mmHg 72%
    23:00 +7°C° 0 mm 3 mps 763 mmHg 74%
    Show more